sat.trackr.live / text

‹ back to catalog

ONEWEB-0248

NORAD 48798 · 2021-045AH

PAYLOAD ACTIVE UNKNOWN

§ Identity

Operator
Country
UK
Launch date
2021-05-28
Launch site
VOSTO
Launch vehicle
Mass (kg)
RCS (m²)

Purposes: comms

External: N2YO · Heavens-Above · Gunter

§ Orbital elements

Epoch: 2026-09-20T04:25:07.660416Z

Period
109.46 min
Inclination
87.8996°
Eccentricity
0.0001797
Mean motion
13.15549494 rev/d
Perigee alt
1,200.4 km
Apogee alt
1,203.1 km
Semi-major
7,579.9 km
B*
-1.5136e-5
RAAN
240.2541°
Arg perigee
69.0853°
Mean anomaly
291.0469°
Rev number
25,690

§ Raw data

ONEWEB-02481 48798U 21045AH  26263.18411644  .00000007  00000+0 -15136-4 0  99932 48798  87.8996 240.2541 0001797  69.0853 291.0469 13.15549494256906

JSON: /api/v1/satellites/48798 · /tle

For live sub-satellite position, see the globe view (requires WebGL).

§ Visibility from observer

Set your observer location to see the next 7 days of passes ≥ 10°. The values pass through the URL so the page stays shareable.

No JS? Fill the form by hand. The geolocation button needs JavaScript.